Location: Ciserano
(45.5833°N, 9.6000°E)
Time: 08:28:29
(UTC+00:00)

USA 234 - Pass Details

Date: 29 November 2020
Orbit: 1098 x 1110 km, 123.0° (Epoch: 22 January)

Event Time Altitude Azimuth Distance (km) Brightness Sun altitude
Rises 05:48:48 0° 51° (NE) 3,940 6.6 -8.8°
Reaches altitude 10° 05:51:17 10° 52° (NE) 2,980 6.0 -8.4°
Maximum altitude 05:57:54 83° 141° (SE) 1,121 3.4 -7.3°
Drops below altitude 10° 06:04:29 10° 230° (SW) 2,965 5.3 -6.3°
Sets 06:06:57 0° 231° (SW) 3,919 5.9 -5.9°
